Weather History for KTRI - April, 2012

Change the Weather History Date:

Sunday, April 15, 2012

  Actual Average Record
Temperature  
Mean Temperature 64 °F 55 °F  
Max Temperature 82 °F 68 °F 85 °F (1945)
Min Temperature 45 °F 42 °F 25 °F (1943)
Degree Days  
Heating Degree Days 1 10  
Month to date heating degree days 132 182  
Since 1 July heating degree days 3258 4132  
Cooling Degree Days 0 0  
Month to date cooling degree days 1 0  
Year to date cooling degree days 7 1  
Growing Degree Days 13 (Base 50)    
Moisture  
Dew Point 49 °F    
Average Humidity 60    
Maximum Humidity 86    
Minimum Humidity 33    
Precipitation  
Precipitation 0.00 in 0.11 in 2.32 in (1956)
Month to date precipitation 2.21 1.64  
Year to date precipitation 13.10 11.90  
Snow  
Snow 0.00 in 0.00 in - ()
Month to date snowfall 0.0 0.7  
Since 1 July snowfall 1.2 12.9  
Snow Depth 0.00 in    
Sea Level Pressure  
Sea Level Pressure 30.09 in    
Wind  
Wind Speed 2 mph (SW)    
Max Wind Speed 14 mph    
Max Gust Speed 21 mph    
Visibility 10 miles    
Events      
T = Trace of Precipitation, MM = Missing Value Source: NWS Daily Summary

Daily Weather History Graph

Daily Weather History Graph

Search for Another Location

Airport or City:

Trip Planner

Search our weather history database for the weather conditions in past years. The results will help you decide how hot, cold, wet, or windy it might be!

Date:

Astronomy

Apr. 15, 2012 Rise Set
Actual Time 6:55 AM EDT 8:04 PM EDT
Civil Twilight 6:28 AM EDT 8:30 PM EDT
Nautical Twilight 5:57 AM EDT 9:02 PM EDT
Astronomical Twilight 5:24 AM EDT 9:35 PM EDT
Moon 3:43 AM EDT (4/15) 3:05 PM EDT (4/15)
Length of Visible Light 14h 02m
Length of Day
13h 08m
Waning Crescent, 28% of the Moon is Illuminated
Apr 15
Waning Crescent
Apr 21
New
Apr 29
First Quarter
May 5
Full
May 12
Last Quarter

Hourly Weather History & Observations

Time (EDT) Temp. Dew Point Humidity Pressure Visibility Wind Dir Wind Speed Gust Speed Precip Events Conditions
12:53 AM 53.1 °F 46.0 °F 77% 30.12 in 10.0 mi Calm Calm - N/A   Mostly Cloudy
1:53 AM 51.1 °F 45.0 °F 80% 30.12 in 10.0 mi Calm Calm - N/A   Mostly Cloudy
2:53 AM 50.0 °F 44.1 °F 80% 30.09 in 10.0 mi Calm Calm - N/A   Mostly Cloudy
3:53 AM 48.9 °F 44.1 °F 83% 30.09 in 10.0 mi Variable 3.5 mph - N/A   Mostly Cloudy
4:53 AM 48.0 °F 43.0 °F 83% 30.09 in 10.0 mi Calm Calm - N/A   Scattered Clouds
5:53 AM 48.0 °F 43.0 °F 83% 30.09 in 10.0 mi Calm Calm - N/A   Scattered Clouds
6:53 AM 46.0 °F 43.0 °F 89% 30.11 in 10.0 mi Calm Calm - N/A   Scattered Clouds
7:53 AM 48.0 °F 44.1 °F 86% 30.13 in 10.0 mi Calm Calm - N/A   Scattered Clouds
8:53 AM 55.9 °F 48.0 °F 75% 30.13 in 10.0 mi Calm Calm - N/A   Scattered Clouds
9:53 AM 63.0 °F 48.9 °F 60% 30.16 in 10.0 mi Calm Calm - N/A   Scattered Clouds
10:53 AM 69.1 °F 50.0 °F 51% 30.16 in 10.0 mi Calm Calm - N/A   Partly Cloudy
11:53 AM 73.9 °F 46.9 °F 38% 30.14 in 10.0 mi Calm Calm - N/A   Partly Cloudy
12:53 PM 75.9 °F 48.0 °F 37% 30.13 in 10.0 mi South 4.6 mph - N/A   Partly Cloudy
1:53 PM 77.0 °F 46.9 °F 34% 30.11 in 10.0 mi WNW 4.6 mph - N/A   Partly Cloudy
2:53 PM 80.1 °F 48.0 °F 32% 30.09 in 10.0 mi Calm Calm - N/A   Mostly Cloudy
3:53 PM 80.1 °F 48.9 °F 34% 30.05 in 10.0 mi Variable 4.6 mph - N/A   Mostly Cloudy
4:53 PM 80.1 °F 48.9 °F 34% 30.04 in 10.0 mi WSW 9.2 mph 20.7 mph N/A   Mostly Cloudy
5:53 PM 79.0 °F 52.0 °F 39% 30.03 in 10.0 mi SW 10.4 mph - N/A   Mostly Cloudy
6:53 PM 78.1 °F 54.0 °F 43% 30.04 in 10.0 mi SW 6.9 mph - N/A   Mostly Cloudy
7:53 PM 73.9 °F 55.0 °F 52% 30.05 in 10.0 mi SSW 4.6 mph - N/A   Mostly Cloudy
8:53 PM 71.1 °F 55.0 °F 57% 30.06 in 10.0 mi West 5.8 mph - N/A   Scattered Clouds
9:00 PM - - N/A% - - North - - N/A   Unknown
9:53 PM 68.0 °F 55.0 °F 63% 30.07 in 10.0 mi Calm Calm - N/A   Partly Cloudy
10:53 PM 62.1 °F 55.0 °F 78% 30.08 in 10.0 mi Calm Calm - N/A   Scattered Clouds
11:53 PM 61.0 °F 55.0 °F 81% 30.07 in 10.0 mi Calm Calm - N/A   Clear